This demonstration page uses our WeatherBlox Daily Observations layout. Learn more.

Left ArrowRight Arrow

31.84235, -102.49876

Hourly Observations for November 21, 2015

Temp ( °F °C ) Dew Point ( °F °C ) Humidity (%) Winds ( mph kmh ) Pressure ( in mb ) Visibility ( mi km ) Precip ( " mm )
12:53 am 00:53 Clear 48 8.9 45 7.2 89 89 W 7 11 29.91 1013 10 16 0.00 0.00
1:53 am 01:53 Clear 52 11.1 38 3.3 59 59 N 21 33 29.95 1014 10 16 0.00 0.00
2:53 am 02:53 Clear 43 6.1 32 0 65 65 N 24 39 30.05 1018 10 16 0.00 0.00
3:53 am 03:53 Clear 40 4.4 30 -1.1 68 68 NNE 20 31 30.10 1019 10 16 0.00 0.00
4:53 am 04:53 Clear 39 3.9 29 -1.7 67 67 NE 18 30 30.17 1022 10 16 0.00 0.00
5:53 am 05:53 Clear 38 3.3 27 -2.8 65 65 NNE 18 30 30.22 1023 10 16 0.00 0.00
6:53 am 06:53 Clear 37 2.8 25 -3.9 62 62 NNE 21 33 30.27 1025 10 16 0.00 0.00
7:53 am 07:53 Sunny 37 2.8 24 -4.4 59 59 N 15 24 30.35 1028 10 16 0.00 0.00
8:53 am 08:53 Sunny 39 3.9 22 -5.6 50 50 N 17 28 30.40 1029 10 16 0.00 0.00
9:53 am 09:53 Sunny 40 4.4 22 -5.6 49 49 NNE 20 31 30.42 1030 10 16 0.00 0.00
10:53 am 10:53 Sunny 43 6.1 21 -6.1 42 42 N 17 28 30.43 1030 10 16 0.00 0.00
11:53 am 11:53 Sunny 46 7.8 20 -6.7 35 35 NE 20 31 30.40 1030 10 16 0.00 0.00
12:53 pm 12:53 Sunny 48 8.9 18 -7.8 30 30 NNE 16 26 30.38 1029 10 16 0.00 0.00
1:53 pm 13:53 Sunny 47 8.3 18 -7.8 31 31 NE 12 19 30.36 1028 10 16 0.00 0.00
2:53 pm 14:53 Sunny 48 8.9 18 -7.8 30 30 NE 10 17 30.35 1028 10 16 0.00 0.00
3:53 pm 15:53 Sunny 49 9.4 18 -7.8 29 29 NE 13 20 30.34 1027 10 16 0.00 0.00
4:53 pm 16:53 Sunny 47 8.3 17 -8.3 30 30 NNE 9 15 30.33 1027 10 16 0.00 0.00
5:53 pm 17:53 Clear 43 6.1 17 -8.3 35 35 NNE 7 11 30.33 1027 10 16 0.00 0.00
6:53 pm 18:53 Clear 40 4.4 18 -7.8 41 41 NE 5 7 30.35 1028 10 16 0.00 0.00
7:53 pm 19:53 Clear 40 4.4 17 -8.3 40 40 NE 5 7 30.35 1028 10 16 0.00 0.00
8:53 pm 20:53 Clear 36 2.2 21 -6.1 55 55 Calm 30.35 1028 10 16 0.00 0.00
9:53 pm 21:53 Hazy 36 2.2 22 -5.6 57 57 W 3 6 30.35 1028 6 10 0.00 0.00
10:53 pm 22:53 Hazy 34 1.1 20 -6.7 56 56 Calm 30.34 1028 6 10 0.00 0.00
11:53 pm 23:53 Clear 34 1.1 19 -7.2 54 54 Calm 30.33 1027 10 16 0.00 0.00

Powered by AerisWeather